CAL5311 KJFK-PANC

Flight info

Callsign CAL5311
Flight time N/A
Altitude 32000
Route GAYEL Q812 SYR TULEG BOBSU 50N083W 55N090W 59N100W/N0479F340 61N110W 62N120W 6230N13000W GAHAM TIEKL PTERS3
Aircraft B77L/H-SDE1E2E3FGHIJ2J3J4J5M1RWXY/LB1D1

Departure

Time 2026-05-06 23:02
Airport John F. Kennedy International Airport (KJFK)

Arrival

Time N/A
Airport Ted Stevens Anchorage International Airport (PANC)
Time Latitude Longitude Altitude Speed Heading
2026-05-06 22:44 40.66023 -73.78328 25 ft 0 kts 30°
2026-05-06 22:50 40.66020 -73.78331 25 ft 3 kts 32°
2026-05-06 22:51 40.66001 -73.78353 30 ft 4 kts 61°
2026-05-06 22:51 40.65993 -73.78386 30 ft 4 kts 85°
2026-05-06 22:51 40.65991 -73.78413 30 ft 4 kts 83°
2026-05-06 22:51 40.65987 -73.78448 29 ft 4 kts 80°
2026-05-06 22:52 40.65985 -73.78478 30 ft 4 kts 129°
2026-05-06 22:52 40.65971 -73.78489 28 ft 4 kts 210°
2026-05-06 22:52 40.65964 -73.78495 28 ft 0 kts 211°
2026-05-06 22:55 40.65963 -73.78496 25 ft 1 kts 211°
2026-05-06 22:55 40.65957 -73.78501 25 ft 1 kts 211°
2026-05-06 22:55 40.65945 -73.78510 30 ft 2 kts 210°
2026-05-06 22:56 40.65922 -73.78527 29 ft 6 kts 210°
2026-05-06 22:56 40.65872 -73.78566 30 ft 11 kts 211°
2026-05-06 22:56 40.65793 -73.78628 27 ft 15 kts 211°
2026-05-06 22:56 40.65719 -73.78612 24 ft 13 kts 122°
2026-05-06 22:57 40.65662 -73.78489 26 ft 18 kts 121°
2026-05-06 22:57 40.65593 -73.78336 29 ft 21 kts 121°
2026-05-06 22:57 40.65514 -73.78162 30 ft 24 kts 121°
2026-05-06 22:57 40.65424 -73.77963 26 ft 27 kts 121°
2026-05-06 22:58 40.65322 -73.77739 29 ft 23 kts 120°
2026-05-06 22:58 40.65237 -73.77552 27 ft 25 kts 121°
2026-05-06 22:58 40.65149 -73.77359 26 ft 25 kts 121°
2026-05-06 22:58 40.65062 -73.77164 29 ft 25 kts 121°
2026-05-06 22:59 40.64974 -73.76970 31 ft 25 kts 121°
2026-05-06 22:59 40.64888 -73.76782 30 ft 18 kts 121°
2026-05-06 22:59 40.64905 -73.76678 31 ft 13 kts 31°
2026-05-06 22:59 40.64990 -73.76612 31 ft 15 kts 30°
2026-05-06 23:00 40.65086 -73.76536 29 ft 17 kts 37°
2026-05-06 23:00 40.65074 -73.76416 27 ft 14 kts 117°
2026-05-06 23:00 40.65020 -73.76362 27 ft 8 kts 199°
2026-05-06 23:00 40.64957 -73.76408 27 ft 21 kts 210°
2026-05-06 23:01 40.64630 -73.76662 26 ft 88 kts 210°
2026-05-06 23:01 40.63927 -73.77209 30 ft 145 kts 210°
2026-05-06 23:01 40.62942 -73.77964 163 ft 171 kts 210°
2026-05-06 23:01 40.61897 -73.78785 561 ft 181 kts 210°
2026-05-06 23:02 40.60806 -73.79610 1068 ft 178 kts 212°
2026-05-06 23:02 40.59751 -73.80387 1754 ft 170 kts 215°
2026-05-06 23:02 40.58746 -73.81206 2255 ft 172 kts 216°
2026-05-06 23:02 40.57599 -73.81828 2468 ft 192 kts 190°
2026-05-06 23:03 40.56227 -73.81412 2680 ft 219 kts 154°
2026-05-06 23:03 40.55093 -73.79871 2839 ft 256 kts 122°
2026-05-06 23:03 40.54617 -73.77522 3193 ft 277 kts 90°
2026-05-06 23:03 40.55032 -73.75026 3727 ft 286 kts 61°
2026-05-06 23:04 40.56119 -73.72818 4303 ft 292 kts 50°
2026-05-06 23:04 40.57390 -73.70695 4971 ft 298 kts 48°
2026-05-06 23:04 40.58701 -73.68567 5701 ft 301 kts 47°
2026-05-06 23:04 40.60020 -73.66431 6435 ft 304 kts 47°
2026-05-06 23:05 40.61365 -73.64257 7085 ft 309 kts 47°
2026-05-06 23:05 40.62735 -73.62043 7699 ft 315 kts 47°
2026-05-06 23:05 40.64131 -73.59790 8375 ft 319 kts 47°
2026-05-06 23:05 40.65546 -73.57509 9018 ft 324 kts 47°
2026-05-06 23:06 40.67031 -73.55289 9583 ft 324 kts 34°
2026-05-06 23:06 40.68949 -73.53814 10089 ft 318 kts 12°
2026-05-06 23:06 40.71060 -73.52971 10706 ft 317 kts
2026-05-06 23:06 40.73200 -73.52201 11284 ft 321 kts
2026-05-06 23:07 40.75374 -73.51429 11844 ft 327 kts
2026-05-06 23:07 40.77642 -73.50641 12044 ft 347 kts
2026-05-06 23:07 40.80055 -73.49828 12228 ft 368 kts
2026-05-06 23:07 40.82608 -73.48981 12406 ft 389 kts
2026-05-06 23:08 40.85301 -73.48102 12661 ft 406 kts
2026-05-06 23:08 40.88082 -73.47205 13139 ft 417 kts
2026-05-06 23:08 40.90932 -73.46293 13736 ft 424 kts
2026-05-06 23:08 40.93803 -73.45736 14190 ft 413 kts 350°
2026-05-06 23:09 40.96517 -73.46582 14743 ft 394 kts 325°
2026-05-06 23:09 40.98675 -73.48645 15470 ft 378 kts 309°
2026-05-06 23:09 41.00256 -73.50929 16051 ft 374 kts 302°
2026-05-06 23:09 41.01797 -73.53719 16532 ft 378 kts 297°
2026-05-06 23:10 41.03229 -73.56649 16991 ft 380 kts 296°
2026-05-06 23:10 41.04631 -73.59638 16978 ft 382 kts 296°
2026-05-06 23:10 41.06024 -73.62629 16979 ft 380 kts 296°
2026-05-06 23:10 41.07417 -73.65600 16993 ft 379 kts 296°
2026-05-06 23:11 41.08815 -73.68563 16992 ft 379 kts 296°
2026-05-06 23:11 41.10218 -73.71515 16992 ft 379 kts 296°
2026-05-06 23:11 41.11621 -73.74455 16993 ft 379 kts 296°
2026-05-06 23:11 41.13032 -73.77407 16980 ft 379 kts 296°
2026-05-06 23:12 41.14443 -73.80356 16985 ft 379 kts 296°
2026-05-06 23:12 41.15857 -73.83310 16975 ft 379 kts 296°
2026-05-06 23:12 41.17250 -73.86225 16980 ft 379 kts 296°
2026-05-06 23:12 41.18662 -73.89183 16973 ft 380 kts 296°
2026-05-06 23:13 41.20075 -73.92144 16965 ft 380 kts 296°
2026-05-06 23:13 41.21487 -73.95105 16966 ft 379 kts 296°
2026-05-06 23:13 41.22897 -73.98064 16971 ft 379 kts 296°
2026-05-06 23:13 41.24040 -74.00467 17118 ft 381 kts 296°
2026-05-06 23:14 41.25448 -74.03429 17941 ft 378 kts 297°
2026-05-06 23:14 41.26851 -74.06381 18649 ft 377 kts 297°
2026-05-06 23:14 41.28249 -74.09327 19317 ft 376 kts 296°
2026-05-06 23:14 41.29642 -74.12264 20012 ft 375 kts 296°
2026-05-06 23:15 41.31035 -74.15209 20607 ft 378 kts 296°
2026-05-06 23:15 41.32440 -74.18183 21120 ft 381 kts 296°
2026-05-06 23:15 41.33849 -74.21163 21779 ft 380 kts 295°
2026-05-06 23:15 41.35254 -74.24137 22454 ft 379 kts 295°
2026-05-06 23:16 41.36658 -74.27112 23077 ft 380 kts 295°